• In Deutschland
  • Länderverzeichnis
  • Für 7 Tage
  • Wassertemperatur
  • Satellitenkarten
  • Wetterkarte
  • Widgets
  • user-avatar
    Anmelden

    Stündliche Wetter Sidi Bu-l-Abbas

    Heute, 29 Mai, Montag

    Zeit Temperatur Niederschläge Wind Luftdruck Luftfeuchtigkeit
    00:00 +19°C° 0 mm 3 m/S 720 mmHg 88%
    01:00 +19°C° 0,1 mm 3 m/S 720 mmHg 87%
    02:00 +19°C° 0,1 mm 3 m/S 720 mmHg 87%
    03:00 +18°C° 0,1 mm 3 m/S 720 mmHg 87%
    04:00 +18°C° 0,3 mm 3 m/S 720 mmHg 87%
    05:00 +18°C° 0,3 mm 3 m/S 720 mmHg 86%
    06:00 +18°C° 0 mm 3 m/S 720 mmHg 85%
    07:00 +20°C° 0,2 mm 3 m/S 720 mmHg 78%
    08:00 +21°C° 0,2 mm 2 m/S 720 mmHg 72%
    09:00 +23°C° 0,2 mm 2 m/S 720 mmHg 65%
    10:00 +24°C° 0 mm 3 m/S 720 mmHg 59%
    11:00 +25°C° 0 mm 3 m/S 720 mmHg 53%
    12:00 +27°C° 0 mm 4 m/S 720 mmHg 48%
    13:00 +27°C° 0 mm 4 m/S 720 mmHg 47%
    14:00 +27°C° 0 mm 4 m/S 720 mmHg 47%
    15:00 +27°C° 0 mm 5 m/S 719 mmHg 47%
    16:00 +26°C° 0,1 mm 5 m/S 719 mmHg 50%
    17:00 +25°C° 0,1 mm 4 m/S 719 mmHg 53%
    18:00 +23°C° 0,1 mm 4 m/S 719 mmHg 57%
    19:00 +21°C° 0,2 mm 3 m/S 719 mmHg 63%
    20:00 +20°C° 0,2 mm 2 m/S 719 mmHg 69%
    21:00 +19°C° 0,2 mm 1 m/S 720 mmHg 75%
    22:00 +19°C° 0,2 mm 1 m/S 720 mmHg 75%
    23:00 +19°C° 0,2 mm 1 m/S 720 mmHg 75%

    Morgen, 30 Mai, Dienstag

    Zeit Temperatur Niederschläge Wind Luftdruck Luftfeuchtigkeit
    00:00 +19°C° 0,2 mm 1 m/S 720 mmHg 75%
    01:00 +18°C° 0,3 mm 2 m/S 720 mmHg 75%
    02:00 +18°C° 0,3 mm 2 m/S 719 mmHg 75%
    03:00 +18°C° 0,3 mm 2 m/S 719 mmHg 75%
    04:00 +18°C° 0,1 mm 2 m/S 719 mmHg 72%
    05:00 +20°C° 0,1 mm 1 m/S 719 mmHg 69%
    06:00 +20°C° 0,1 mm 1 m/S 719 mmHg 66%
    07:00 +21°C° 0 mm 2 m/S 720 mmHg 60%
    08:00 +24°C° 0 mm 2 m/S 720 mmHg 53%
    09:00 +25°C° 0 mm 2 m/S 720 mmHg 46%
    10:00 +26°C° 0 mm 3 m/S 720 mmHg 44%
    11:00 +27°C° 0 mm 3 m/S 720 mmHg 41%
    12:00 +28°C° 0 mm 3 m/S 720 mmHg 38%
    13:00 +28°C° 0 mm 3 m/S 719 mmHg 38%
    14:00 +29°C° 0 mm 3 m/S 719 mmHg 37%
    15:00 +29°C° 0 mm 4 m/S 719 mmHg 37%
    16:00 +28°C° 0,2 mm 3 m/S 719 mmHg 40%
    17:00 +26°C° 0,2 mm 3 m/S 718 mmHg 44%
    18:00 +25°C° 0,2 mm 3 m/S 718 mmHg 47%
    19:00 +24°C° 0,8 mm 2 m/S 719 mmHg 56%
    20:00 +22°C° 0,8 mm 1 m/S 719 mmHg 64%
    21:00 +18°C° 0,8 mm 0 m/S 720 mmHg 73%
    22:00 +20°C° 0,6 mm 1 m/S 720 mmHg 75%
    23:00 +20°C° 0,6 mm 1 m/S 720 mmHg 77%

    übermorgen, 31 Mai, Mittwoch

    Zeit Temperatur Niederschläge Wind Luftdruck Luftfeuchtigkeit
    00:00 +19°C° 0,6 mm 1 m/S 720 mmHg 78%
    01:00 +19°C° 0 mm 1 m/S 720 mmHg 80%
    02:00 +19°C° 0 mm 1 m/S 720 mmHg 81%
    03:00 +19°C° 0 mm 1 m/S 720 mmHg 82%
    04:00 +19°C° 0 mm 1 m/S 720 mmHg 79%
    05:00 +20°C° 0 mm 1 m/S 720 mmHg 75%
    06:00 +21°C° 0 mm 1 m/S 720 mmHg 71%
    07:00 +23°C° 0 mm 1 m/S 720 mmHg 63%
    08:00 +25°C° 0 mm 1 m/S 721 mmHg 55%
    09:00 +27°C° 0 mm 1 m/S 721 mmHg 47%
    10:00 +28°C° 0 mm 2 m/S 721 mmHg 45%
    11:00 +28°C° 0 mm 2 m/S 721 mmHg 43%
    12:00 +29°C° 0 mm 3 m/S 721 mmHg 40%
    13:00 +29°C° 0 mm 3 m/S 721 mmHg 40%
    14:00 +30°C° 0 mm 3 m/S 720 mmHg 40%
    15:00 +30°C° 0 mm 4 m/S 720 mmHg 40%
    16:00 +29°C° 0 mm 4 m/S 720 mmHg 42%
    17:00 +28°C° 0 mm 4 m/S 720 mmHg 44%
    18:00 +28°C° 0 mm 4 m/S 719 mmHg 46%
    19:00 +26°C° 0,3 mm 3 m/S 720 mmHg 54%
    20:00 +24°C° 0,3 mm 3 m/S 720 mmHg 61%
    21:00 +21°C° 0,3 mm 2 m/S 720 mmHg 69%
    22:00 +21°C° 0,7 mm 2 m/S 721 mmHg 71%
    23:00 +21°C° 0,7 mm 2 m/S 721 mmHg 72%

    1 Juni, Donnerstag

    Zeit Temperatur Niederschläge Wind Luftdruck Luftfeuchtigkeit
    00:00 +21°C° 0,7 mm 2 m/S 721 mmHg 73%
    01:00 +21°C° 0 mm 1 m/S 720 mmHg 74%
    02:00 +21°C° 0 mm 1 m/S 720 mmHg 75%
    03:00 +20°C° 0 mm 1 m/S 720 mmHg 76%
    04:00 +21°C° 0 mm 1 m/S 720 mmHg 75%
    05:00 +21°C° 0 mm 1 m/S 720 mmHg 73%
    06:00 +22°C° 0 mm 1 m/S 720 mmHg 72%
    07:00 +23°C° 0 mm 1 m/S 721 mmHg 66%
    08:00 +25°C° 0 mm 1 m/S 721 mmHg 60%
    09:00 +26°C° 0 mm 1 m/S 722 mmHg 54%
    10:00 +27°C° 0 mm 2 m/S 722 mmHg 50%
    11:00 +28°C° 0 mm 2 m/S 722 mmHg 47%
    12:00 +29°C° 0 mm 3 m/S 721 mmHg 44%
    13:00 +30°C° 0 mm 3 m/S 721 mmHg 41%
    14:00 +31°C° 0 mm 3 m/S 721 mmHg 38%
    15:00 +33°C° 0 mm 4 m/S 720 mmHg 34%
    16:00 +32°C° 0 mm 4 m/S 720 mmHg 37%
    17:00 +30°C° 0 mm 4 m/S 720 mmHg 41%
    18:00 +29°C° 0 mm 4 m/S 720 mmHg 44%
    19:00 +28°C° 0 mm 3 m/S 720 mmHg 51%
    20:00 +26°C° 0 mm 3 m/S 720 mmHg 58%
    21:00 +24°C° 0 mm 2 m/S 720 mmHg 65%
    22:00 +24°C° 0,1 mm 2 m/S 720 mmHg 66%
    23:00 +23°C° 0,1 mm 2 m/S 720 mmHg 67%

    2 Juni, Freitag

    Zeit Temperatur Niederschläge Wind Luftdruck Luftfeuchtigkeit
    00:00 +23°C° 0,1 mm 1 m/S 720 mmHg 68%
    01:00 +23°C° 0,3 mm 1 m/S 720 mmHg 70%
    02:00 +22°C° 0,3 mm 1 m/S 720 mmHg 71%
    03:00 +21°C° 0,3 mm 2 m/S 719 mmHg 72%
    04:00 +22°C° 0 mm 1 m/S 719 mmHg 70%
    05:00 +23°C° 0 mm 1 m/S 719 mmHg 67%
    06:00 +24°C° 0 mm 1 m/S 720 mmHg 65%
    07:00 +26°C° 0 mm 1 m/S 720 mmHg 56%
    08:00 +29°C° 0 mm 2 m/S 720 mmHg 48%
    09:00 +31°C° 0 mm 2 m/S 721 mmHg 39%
    10:00 +34°C° 0 mm 2 m/S 720 mmHg 36%
    11:00 +35°C° 0 mm 3 m/S 720 mmHg 32%
    12:00 +37°C° 0 mm 3 m/S 720 mmHg 29%
    13:00 +36°C° 0 mm 3 m/S 720 mmHg 30%
    14:00 +36°C° 0 mm 3 m/S 719 mmHg 32%
    15:00 +35°C° 0 mm 3 m/S 719 mmHg 34%
    16:00 +34°C° 0,2 mm 3 m/S 719 mmHg 37%
    17:00 +33°C° 0,2 mm 3 m/S 719 mmHg 41%
    18:00 +30°C° 0,2 mm 2 m/S 718 mmHg 45%
    19:00 +29°C° 0,3 mm 2 m/S 719 mmHg 52%
    20:00 +27°C° 0,3 mm 2 m/S 719 mmHg 59%
    21:00 +25°C° 0,3 mm 2 m/S 719 mmHg 66%
    22:00 +25°C° 0,1 mm 2 m/S 720 mmHg 67%
    23:00 +25°C° 0,1 mm 2 m/S 720 mmHg 68%

    3 Juni, Samstag

    Zeit Temperatur Niederschläge Wind Luftdruck Luftfeuchtigkeit
    00:00 +24°C° 0,1 mm 2 m/S 720 mmHg 70%
    01:00 +24°C° 0,1 mm 2 m/S 719 mmHg 70%
    02:00 +24°C° 0,1 mm 1 m/S 719 mmHg 70%
    03:00 +24°C° 0,1 mm 1 m/S 719 mmHg 71%
    04:00 +24°C° 0 mm 1 m/S 719 mmHg 70%
    05:00 +24°C° 0 mm 1 m/S 719 mmHg 70%
    06:00 +24°C° 0 mm 1 m/S 719 mmHg 70%
    07:00 +25°C° 0 mm 1 m/S 719 mmHg 63%
    08:00 +27°C° 0 mm 2 m/S 720 mmHg 56%
    09:00 +29°C° 0 mm 2 m/S 720 mmHg 50%
    10:00 +29°C° 0 mm 3 m/S 720 mmHg 47%
    11:00 +30°C° 0 mm 3 m/S 720 mmHg 45%
    12:00 +30°C° 0 mm 3 m/S 720 mmHg 43%
    13:00 +30°C° 0 mm 3 m/S 720 mmHg 42%
    14:00 +31°C° 0 mm 3 m/S 720 mmHg 42%
    15:00 +32°C° 0 mm 4 m/S 720 mmHg 41%
    16:00 +30°C° 0 mm 4 m/S 720 mmHg 44%
    17:00 +29°C° 0 mm 4 m/S 720 mmHg 48%
    18:00 +28°C° 0 mm 4 m/S 720 mmHg 51%
    19:00 +27°C° 0 mm 3 m/S 720 mmHg 57%
    20:00 +25°C° 0 mm 2 m/S 720 mmHg 62%
    21:00 +24°C° 0 mm 1 m/S 721 mmHg 67%
    22:00 +23°C° 0 mm 1 m/S 720 mmHg 68%
    23:00 +23°C° 0 mm 1 m/S 720 mmHg 68%
    Mehr zeigen